RH
35 16 10 10 12 18 25 32 31 21 13 13 19 23 23 23 23 21 17 13 12 12 13 14 14 15 17 18 20 20 21 22 23 24 24 24 24 24 23 23 22 21 21 22 23 25 24 23 23 21 18 16 17 17 15 12 12 11 8 8 9 8 11 18 19 16 15 15 15 15 14 13 11 11 12 14 17 16 13 10 10 10 7 11 29
27 15 11 12 13 22 38 47 44 30 15 12 18 23 22 22 22 23 21 15 13 13 14 15 16 15 17 19 20 21 21 22 23 24 25 24 24 24 24 23 22 21 20 21 22 25 27 26 24 20 16 19 24 20 15 13 12 10 9 8 9 11 18 23 19 15 14 14 15 15 16 16 15 13 11 11 14 16 15 11 9 9 9 7 14
23 17 14 14 14 26 45 55 58 53 32 13 13 16 16 20 25 28 28 21 15 14 14 16 16 16 18 19 20 21 21 22 24 24 25 25 25 25 25 24 23 21 20 21 21 25 28 26 23 19 15 19 23 19 14 12 10 10 9 8 10 19 27 26 19 15 13 14 16 17 17 17 16 16 14 12 11 13 15 14 11 9 8 8 9
30 26 21 16 15 29 52 61 62 63 45 18 11 17 19 20 24 28 32 28 19 15 15 15 17 17 18 20 21 22 22 22 24 25 26 26 26 26 25 24 24 22 21 21 22 24 25 24 23 19 16 19 23 21 19 15 13 13 11 18 37 48 43 33 20 12 10 10 10 11 12 12 13 14 15 14 12 12 14 14 13 11 9 8 9
32 30 25 20 16 24 49 64 57 52 48 27 12 19 21 14 16 21 25 25 19 15 15 16 17 18 18 21 21 21 23 24 26 27 26 27 26 26 25 24 23 23 22 22 22 23 24 24 22 21 22 24 25 25 23 20 19 15 14 35 69 75 59 47 38 28 26 23 19 19 17 11 11 15 16 14 12 12 13 13 13 13 11 8 8
31 30 28 24 18 18 38 63 57 38 35 22 15 35 38 19 13 16 17 18 16 15 17 17 17 18 18 20 21 21 24 26 28 28 27 27 26 26 25 24 24 24 23 23 23 24 25 22 22 27 28 28 28 29 28 24 22 20 19 34 58 62 51 46 45 43 40 34 31 33 32 25 22 24 25 21 15 12 14 13 13 13 12 10 8
25 31 33 26 22 23 36 58 51 27 20 16 26 57 58 27 15 15 13 15 15 15 18 18 18 19 19 20 21 22 26 29 31 30 27 27 26 26 26 25 25 25 24 25 25 24 23 24 30 35 34 33 33 29 26 24 20 21 31 42 49 49 42 36 36 36 31 27 28 30 32 32 26 25 33 35 23 16 15 13 12 12 11 11 8
20 31 38 31 25 27 41 61 56 38 30 17 22 51 50 24 16 16 14 15 16 17 19 19 19 19 19 21 23 26 29 31 32 30 28 28 28 28 28 26 26 27 26 26 25 26 29 35 41 41 37 33 26 19 18 19 19 29 50 61 56 49 41 34 30 28 24 24 26 27 28 26 18 20 37 45 35 26 22 15 11 12 11 11 9
19 29 38 39 31 23 36 54 51 45 42 27 29 48 42 22 18 16 15 17 18 19 20 19 20 21 22 25 27 29 31 33 34 33 30 30 30 30 29 28 28 28 28 28 30 36 43 47 48 44 37 25 15 13 14 15 29 56 76 76 63 53 46 38 34 31 28 28 28 26 23 16 14 25 41 48 43 36 32 23 13 10 11 10 10
20 23 26 33 32 23 29 38 35 40 46 42 46 47 32 24 24 19 18 20 19 20 20 21 25 26 27 29 29 31 34 36 37 35 33 32 32 30 30 30 30 30 30 32 38 45 48 51 53 46 34 23 17 16 19 27 50 77 88 82 70 58 50 44 42 39 33 30 27 23 19 14 17 28 37 44 47 42 38 32 17 9 10 10 10
17 19 24 32 32 27 25 25 36 50 43 34 40 39 30 32 32 23 21 22 20 21 23 26 31 32 32 33 33 36 39 39 38 36 34 34 32 31 31 31 31 31 31 33 44 51 48 53 61 54 39 30 24 23 33 50 68 80 84 80 70 58 51 46 42 37 30 26 23 21 20 17 20 31 39 45 50 48 44 38 22 9 8 9 10
26 33 44 54 56 49 34 26 44 56 35 22 35 42 38 37 32 25 24 24 24 26 30 34 37 37 37 38 39 42 42 40 39 37 35 34 32 31 32 31 32 32 30 31 41 46 45 52 65 65 54 41 30 34 53 68 74 76 77 75 67 56 48 42 37 33 29 25 23 24 25 21 24 43 58 57 53 51 50 43 28 14 9 8 9
35 34 38 46 48 46 40 43 59 63 44 35 44 47 42 38 33 28 25 26 28 31 36 40 40 39 39 41 44 46 45 42 41 39 35 33 32 30 30 31 32 32 30 28 29 32 36 44 59 70 67 51 37 42 61 76 79 78 77 74 64 51 43 40 37 33 31 28 26 28 31 28 31 51 71 70 59 53 52 47 35 22 15 11 10
24 23 22 19 18 32 52 64 71 73 67 57 49 44 40 37 33 28 26 28 29 34 40 43 41 40 39 44 53 56 51 43 38 36 33 29 28 27 28 30 31 31 30 27 24 23 25 28 41 57 58 51 48 49 60 76 80 82 83 72 54 46 43 39 35 32 34 35 34 36 40 40 42 54 70 73 63 54 50 49 42 31 24 20 17
26 31 27 18 26 56 79 80 79 85 82 64 45 37 36 35 32 29 28 28 30 37 43 44 44 41 44 61 76 73 56 39 31 30 28 23 21 21 24 27 29 29 28 27 23 20 17 14 21 33 39 50 62 59 62 75 73 70 72 60 46 44 40 33 34 37 38 38 41 47 51 52 52 57 65 67 61 54 48 45 43 36 30 27 23
52 56 51 47 60 79 83 77 84 93 81 57 40 33 34 35 32 31 31 32 36 42 43 47 53 50 53 71 79 66 47 33 27 25 21 17 14 15 19 23 25 27 26 26 23 19 15 11 13 22 35 58 73 65 64 75 66 51 49 46 40 38 32 34 42 40 36 43 56 64 63 61 59 58 60 60 55 51 46 42 41 38 33 30 28
65 72 77 83 88 93 90 83 86 86 70 50 39 36 36 35 32 32 35 38 43 46 46 52 57 53 51 55 54 51 46 33 23 19 14 9 8 10 15 18 21 24 24 24 24 19 15 11 12 24 45 68 78 66 60 69 62 43 36 37 35 31 34 43 43 36 42 61 76 80 76 71 66 61 60 59 51 44 41 38 39 41 36 31 30
66 66 76 88 87 88 92 87 82 77 62 48 43 40 37 34 32 34 39 44 47 48 49 52 53 51 50 46 43 51 52 33 18 14 8 4 4 6 10 14 17 21 22 22 22 19 15 12 12 27 54 76 78 63 55 60 55 39 31 31 30 32 39 41 37 44 63 78 87 91 86 80 77 69 65 63 53 42 35 34 39 42 36 31 33
71 67 72 81 78 76 80 81 79 71 57 49 48 44 39 39 39 39 44 49 49 51 54 57 55 53 53 45 37 40 38 24 15 12 6 3 4 3 6 11 15 18 20 21 21 18 15 11 14 34 63 79 73 57 51 55 50 37 30 28 29 33 35 31 34 54 75 84 93 98 90 83 85 81 73 69 62 47 34 34 42 42 37 34 37
65 64 60 61 64 67 72 78 75 63 54 54 53 51 49 48 44 43 49 53 54 57 62 63 59 52 45 39 32 28 24 17 12 8 5 4 4 3 5 11 14 16 19 20 20 18 14 12 24 49 73 78 64 50 50 52 47 38 31 29 31 32 28 27 39 61 80 91 100 101 91 87 91 89 80 76 70 54 40 43 50 45 38 37 38
42 46 45 50 62 67 67 71 69 59 55 59 59 57 55 49 46 51 57 58 59 61 64 69 70 57 39 31 27 21 16 12 8 6 6 6 4 5 7 10 13 16 18 18 19 17 13 19 42 66 77 73 58 48 48 48 43 38 34 34 34 29 24 32 51 73 90 98 102 100 94 91 93 93 89 84 76 63 53 55 57 49 40 37 37
28 32 37 50 69 74 68 69 71 64 59 60 59 55 51 49 54 61 60 58 59 62 67 74 71 53 33 25 21 15 11 10 8 6 7 7 7 8 10 11 13 16 17 19 19 15 14 30 57 73 74 67 56 47 45 43 40 38 38 38 33 25 25 41 62 82 97 100 100 101 98 92 91 94 96 91 82 75 72 67 61 52 41 33 34
26 25 38 62 84 87 76 74 78 72 62 58 55 54 55 60 66 66 58 54 60 66 71 69 56 38 26 20 16 12 10 10 9 8 10 11 11 11 12 13 15 16 17 19 18 14 20 43 66 70 65 60 53 46 43 40 39 41 41 36 28 22 30 49 68 85 99 101 99 100 101 95 91 93 98 95 85 80 79 72 62 51 38 28 29
26 29 52 81 91 83 73 77 84 74 61 58 60 62 66 69 71 66 57 58 69 74 68 55 39 26 20 16 13 12 13 15 13 12 15 17 15 14 15 16 17 17 17 19 16 16 33 58 70 65 57 53 51 47 44 42 42 43 41 32 22 23 37 53 67 82 95 101 99 100 101 98 91 89 93 96 94 88 77 66 57 44 30 25 27
36 44 65 80 78 72 75 86 88 75 63 66 71 72 75 78 79 73 66 69 75 66 49 36 27 20 16 14 13 14 17 19 18 17 23 25 22 21 20 19 19 17 17 18 16 21 45 67 68 62 56 52 52 52 49 45 44 44 38 27 20 26 40 52 63 75 86 97 101 99 99 101 96 89 89 93 97 92 73 53 48 44 32 23 21
56 58 67 75 79 84 90 94 93 84 76 78 82 85 89 91 86 76 68 66 60 44 31 27 22 17 14 14 15 17 20 22 21 24 31 31 26 26 23 20 19 17 17 20 17 23 50 67 62 59 58 55 56 57 52 46 45 42 34 22 18 27 39 47 58 68 77 90 101 101 99 102 100 94 92 90 88 90 81 57 49 59 61 48 38
75 75 74 80 89 95 97 98 98 95 90 90 93 96 97 91 81 71 61 52 41 29 24 22 17 14 15 15 18 23 25 24 23 26 29 25 21 22 21 18 19 17 18 21 17 23 49 66 62 60 63 61 59 58 51 45 44 38 28 19 18 27 35 41 52 63 70 79 93 99 100 101 100 97 97 89 78 84 90 70 56 73 87 78 68
78 81 81 89 98 100 100 101 101 99 97 98 98 97 91 79 67 57 46 36 28 23 19 16 14 15 16 18 26 31 29 26 25 24 21 17 16 18 18 18 20 19 20 24 18 18 42 66 66 64 69 68 62 55 48 42 39 33 24 18 18 24 32 38 45 55 64 69 78 90 98 101 101 99 99 90 74 71 76 64 53 69 83 77 75
84 84 86 95 101 100 100 101 101 100 100 98 94 88 78 63 50 41 32 26 21 17 14 13 13 14 19 26 34 34 29 26 27 24 18 15 16 19 20 20 21 20 22 25 18 14 37 67 74 70 74 74 65 54 46 39 34 28 20 17 18 22 29 35 40 47 58 65 69 77 88 97 101 100 99 93 75 64 64 57 47 56 69 68 66
91 91 96 100 99 98 100 100 100 101 97 89 82 75 63 51 41 33 25 20 16 12 11 11 11 16 25 32 33 31 28 29 28 22 17 18 21 23 22 21 21 20 21 24 19 15 33 64 80 79 79 77 66 54 45 38 31 25 19 17 19 22 27 32 36 41 51 60 64 67 74 87 98 101 101 97 83 71 71 67 54 55 70 79 75
97 96 99 100 97 96 96 93 94 95 88 77 70 64 56 47 38 27 19 15 12 10 10 9 11 19 29 31 30 30 30 28 25 21 21 25 27 26 24 23 21 20 21 21 19 18 31 58 79 85 84 80 69 56 48 41 32 24 20 18 19 23 26 29 34 38 44 53 60 64 65 73 87 98 102 101 94 87 83 78 68 65 76 87 90
94 94 95 97 96 93 91 91 92 89 81 71 63 57 51 42 32 22 16 13 11 9 9 8 13 25 31 30 31 32 28 23 22 24 28 30 29 26 26 25 22 21 20 18 19 27 43 63 81 87 87 85 77 64 55 48 37 26 20 19 20 23 25 28 32 36 41 46 54 61 63 64 72 87 98 101 100 97 91 84 80 81 84 85 87
74 83 91 96 98 95 96 98 94 86 77 66 56 50 44 35 25 18 14 13 11 10 8 9 19 32 35 32 33 34 25 20 24 29 31 32 30 28 27 26 24 22 20 21 29 44 57 69 80 88 89 86 83 76 67 58 46 33 23 20 21 23 25 28 31 33 37 41 46 53 61 62 62 71 86 97 101 101 97 93 90 93 96 93 88
55 64 74 83 91 97 101 100 94 85 75 62 52 46 39 29 22 18 15 13 12 10 9 13 29 42 40 33 36 37 28 22 27 34 35 34 32 29 28 29 28 26 25 31 43 53 56 57 66 81 89 87 85 83 78 69 57 43 29 22 21 23 25 28 30 31 34 37 40 43 51 59 60 61 70 84 96 100 101 100 97 98 100 97 93
40 43 56 75 91 99 101 100 95 85 71 58 49 42 34 27 23 21 18 14 13 13 12 20 37 48 43 35 35 36 30 27 33 39 39 36 33 31 29 31 34 35 37 42 48 49 48 47 51 62 74 81 84 85 84 79 69 55 41 28 22 23 25 26 28 29 31 33 35 38 42 49 56 58 60 67 80 92 99 101 100 99 100 99 95
36 43 60 83 97 100 100 100 95 81 66 55 47 40 34 29 25 23 20 18 18 18 18 25 35 41 40 38 35 30 27 31 38 44 43 38 34 32 30 32 39 46 48 50 49 47 47 49 50 52 58 69 79 85 87 87 80 68 53 40 29 25 25 26 27 27 28 29 32 34 37 41 47 53 56 57 63 74 88 98 101 100 100 99 97
56 70 83 94 101 102 98 94 85 74 64 55 48 42 36 30 26 25 24 24 26 27 28 31 33 32 37 42 38 29 30 39 45 47 44 39 36 35 32 34 43 51 54 54 54 54 53 53 54 56 58 62 71 81 88 91 88 76 61 49 40 33 29 28 29 28 27 29 30 32 34 37 41 46 51 54 56 60 69 83 94 99 100 100 98
66 66 71 81 87 85 77 70 65 64 63 59 53 45 38 32 31 33 31 31 36 39 40 41 40 39 44 49 44 38 43 51 52 48 44 41 39 38 35 36 43 50 54 54 55 60 63 60 59 62 64 63 66 75 84 89 89 81 66 54 48 43 37 33 33 32 31 31 32 34 35 36 38 41 45 49 53 56 59 66 76 87 95 100 100
37 28 34 48 55 54 52 54 56 57 58 58 52 45 37 31 32 36 35 38 46 51 51 54 56 55 54 54 50 50 56 58 53 49 47 45 44 41 39 40 43 46 48 49 53 61 67 67 64 66 69 68 68 72 78 81 81 78 68 57 51 48 44 40 38 38 37 37 37 38 38 37 35 37 39 42 47 52 55 58 62 68 78 90 97
26 32 36 40 45 51 59 62 56 46 41 38 34 31 27 24 27 36 41 45 54 60 60 63 68 68 62 58 56 57 60 58 53 51 50 49 48 46 45 47 49 48 46 47 51 56 60 64 66 69 70 71 72 75 78 76 72 68 64 58 52 47 45 43 42 41 41 40 40 39 39 37 34 32 33 36 40 44 49 53 56 57 61 69 80
49 56 54 54 63 71 67 55 40 28 24 22 21 21 19 21 32 47 54 58 64 66 65 68 75 75 69 64 63 63 62 59 57 55 52 50 49 50 52 55 56 54 49 47 47 48 49 54 61 65 66 69 73 77 79 78 73 66 60 55 51 47 44 42 41 40 39 38 38 36 35 33 31 28 27 29 32 36 41 45 49 52 53 55 60
57 74 80 78 74 62 45 33 28 23 19 18 19 16 15 25 45 63 72 75 74 67 65 73 82 81 74 70 68 66 63 60 58 57 55 54 54 54 57 60 59 54 50 47 45 44 43 45 49 51 53 56 60 64 69 74 75 72 65 58 51 47 43 40 38 37 35 34 33 32 30 29 26 24 23 23 25 28 32 37 40 44 47 49 51
70 78 72 54 35 21 16 21 29 29 23 20 19 18 23 40 63 78 81 77 68 61 67 80 86 82 77 72 68 66 63 60 58 56 55 55 55 54 55 56 54 51 48 46 43 41 40 39 39 39 39 40 42 44 48 54 59 63 65 62 56 50 45 41 39 36 35 33 31 29 27 26 24 22 21 20 21 22 25 28 32 35 37 40 43
58 41 24 12 5 3 4 6 11 14 16 17 22 32 43 56 67 70 66 60 58 66 81 89 85 79 75 71 67 65 63 59 57 56 53 52 52 52 51 50 49 48 47 45 41 39 37 35 34 33 32 32 32 32 32 34 37 40 44 47 48 46 43 40 36 34 33 32 31 28 26 24 23 22 21 19 20 21 21 22 24 27 30 32 34
24 13 7 5 5 7 9 12 15 18 19 19 23 34 44 51 57 63 67 69 72 80 86 83 77 75 73 69 66 66 63 60 59 57 54 51 50 48 48 48 47 46 46 43 40 38 35 33 32 31 30 29 29 28 28 28 27 27 28 29 30 32 31 30 28 27 26 26 26 25 24 23 21 21 20 19 18 19 20 20 21 21 23 25 27
11 10 12 18 23 27 33 37 39 40 38 35 36 42 52 62 72 81 87 86 82 79 75 71 70 72 71 68 67 67 66 64 63 59 54 52 49 46 46 47 46 44 43 41 38 36 34 31 30 29 28 28 28 27 27 26 25 25 25 24 23 23 22 22 22 21 20 20 20 19 20 19 19 19 19 18 18 17 17 17 18 18 18 19 20
12 20 29 39 47 52 56 59 62 62 62 62 63 67 72 76 78 80 80 78 74 70 67 65 67 70 71 69 70 70 69 67 63 59 55 51 47 44 45 46 46 44 42 40 37 36 34 32 31 30 29 30 30 28 28 27 25 25 24 23 23 22 21 20 20 19 18 17 17 15 15 15 15 15 15 15 15 15 15 14 15 15 15 15 15
31 38 42 46 51 57 64 68 69 68 68 68 70 70 69 67 64 62 62 61 60 58 58 60 64 70 73 72 72 71 69 65 60 55 51 48 45 45 45 44 43 42 39 37 36 35 34 33 32 32 31 32 32 31 30 29 28 27 27 25 25 24 22 21 20 19 18 17 15 14 13 13 12 12 12 12 12 12 12 12 12 12 12 12 12
40 38 37 39 44 51 55 57 57 57 56 56 56 54 51 49 48 46 45 45 47 49 52 57 64 68 70 70 68 66 63 59 55 52 49 47 46 45 43 40 38 37 36 35 36 36 35 34 33 33 33 34 33 33 33 32 30 30 28 27 25 24 22 21 19 17 16 15 13 12 12 11 10 10 10 9 9 9 9 9 10 10 9 9 9
36 33 31 31 32 34 37 39 40 40 38 36 36 36 35 35 36 37 38 40 41 42 43 46 51 56 59 61 61 59 56 53 51 50 48 46 44 41 38 36 35 34 35 35 34 33 31 29 27 27 28 29 29 28 28 27 26 25 24 23 21 19 17 16 15 13 12 11 10 10 9 9 8 9 8 8 8 8 8 7 8 7 7 8 7
24 22 21 20 18 19 21 23 25 26 27 27 28 29 30 31 33 34 34 34 33 33 33 33 35 39 43 46 47 48 49 49 49 48 45 42 39 37 36 36 35 34 32 28 24 21 19 18 16 16 18 19 19 19 18 17 17 16 16 15 15 14 12 12 11 10 10 9 8 8 8 7 7 7 7 7 7 7 6 7 7 6 6 7 7
Wind_Speed
26 25 25 24 25 26 25 24 23 22 23 24 24 24 24 23 22 21 22 23 24 25 27 27 28 29 29 29 30 32 34 35 36 38 39 39 39 38 39 39 40 41 42 43 43 44 44 45 46 46 46 47 48 48 47 48 49 49 48 47 48 49 47 44 40 36 37 40 40 40 41 40 40 42 44 47 50 52 54 54 52 50 48 48 50
27 28 27 26 26 27 27 25 23 22 24 25 25 24 24 24 22 22 22 23 25 27 28 29 30 30 30 30 31 33 34 35 37 39 40 41 42 42 41 41 42 43 44 44 45 45 45 46 47 48 49 49 50 48 46 47 48 47 48 48 48 48 46 43 40 37 36 38 39 40 41 41 40 41 42 44 48 51 54 55 54 53 50 49 50
28 28 28 27 27 28 28 27 25 25 26 27 27 26 25 24 23 23 23 24 26 28 29 30 31 32 32 32 32 33 35 37 39 41 42 43 43 43 43 43 44 45 45 46 46 45 46 47 49 50 50 49 49 48 47 47 47 47 47 49 48 46 44 42 40 37 34 34 35 37 38 39 39 40 42 42 45 49 52 54 55 54 52 51 50
29 29 29 28 27 28 29 29 29 29 29 29 29 27 25 23 23 24 25 26 28 30 31 32 32 33 33 33 33 35 36 38 40 41 42 43 44 44 45 45 46 47 47 47 47 47 47 48 49 50 49 48 47 47 48 48 49 49 49 47 43 40 40 40 39 37 33 32 33 35 37 38 38 39 42 43 43 46 50 52 54 55 54 52 51
30 30 30 29 29 29 28 29 32 32 31 31 31 28 25 25 25 26 27 29 30 32 33 33 33 33 34 34 35 37 38 39 40 41 42 43 44 44 46 47 48 48 48 48 48 49 49 49 50 49 48 47 47 47 49 49 49 50 49 44 39 38 38 39 39 37 35 33 34 35 36 38 38 39 42 44 43 43 47 50 52 54 54 54 53
32 32 32 31 31 30 28 29 33 33 31 32 32 30 28 27 28 28 30 31 33 34 34 33 33 34 35 36 38 39 39 40 41 43 43 44 44 45 47 49 50 50 50 49 50 50 50 50 50 48 45 45 47 49 50 50 49 49 46 43 41 42 42 42 41 39 37 36 36 36 36 37 38 39 42 45 44 42 45 47 50 52 53 54 53
35 34 33 32 32 32 31 32 33 32 31 32 31 31 31 30 30 31 32 33 34 35 35 34 35 36 37 39 40 41 41 41 43 44 44 45 46 47 48 50 51 51 51 50 50 50 50 50 47 44 43 44 48 51 51 49 47 46 44 42 42 43 43 43 42 41 40 39 40 40 40 40 42 43 43 45 45 43 44 45 47 49 52 53 53
37 36 35 33 33 34 32 32 32 30 31 32 33 33 33 31 31 33 34 35 36 36 36 36 38 39 39 40 41 42 42 42 44 45 46 47 48 47 48 49 50 51 51 51 50 49 49 47 43 40 42 46 49 50 49 46 43 41 41 41 40 41 41 41 41 41 42 42 42 42 42 42 44 43 43 44 45 44 44 44 44 47 50 52 51
38 38 37 36 36 35 32 31 33 32 31 33 35 36 34 32 33 34 35 36 36 37 38 39 40 41 40 40 41 41 42 44 45 46 47 49 49 48 48 49 50 51 51 50 49 47 45 42 38 39 42 45 46 47 46 42 39 38 39 39 39 41 41 40 41 41 42 43 43 42 42 43 43 42 41 44 45 44 44 43 43 45 48 50 50
39 40 40 39 39 38 34 32 32 32 32 34 37 38 35 32 34 36 36 36 37 38 39 40 41 41 41 40 40 41 43 45 46 47 48 49 49 49 48 49 50 49 49 48 46 44 42 39 36 38 41 42 43 44 42 39 36 36 38 38 39 41 41 40 41 42 43 44 44 43 42 42 43 42 41 43 45 44 43 42 42 43 46 48 49
39 40 41 41 40 38 35 33 31 30 31 36 39 39 35 33 35 37 37 36 38 39 40 41 42 41 41 41 41 43 45 46 47 48 49 50 50 49 48 48 48 47 47 47 45 43 42 40 37 37 40 41 42 42 39 37 37 37 38 39 39 40 40 39 40 42 43 45 46 46 45 43 42 41 40 42 43 43 42 41 41 41 43 46 47
38 39 38 40 41 39 36 34 31 31 33 37 38 35 34 34 36 37 37 37 38 40 41 42 42 41 41 42 43 45 46 47 47 48 49 49 50 49 47 47 47 47 47 46 45 44 44 42 39 38 40 41 41 40 39 37 37 38 39 40 39 39 39 39 41 43 44 46 48 49 47 43 41 38 36 39 42 42 41 39 39 40 41 43 45
37 38 39 40 40 38 37 35 32 32 34 35 34 33 33 34 36 38 38 38 39 41 41 42 42 41 41 43 45 46 45 46 46 47 48 49 49 49 48 47 47 47 46 46 46 45 44 43 41 40 42 42 41 40 39 38 37 38 39 39 38 38 38 39 41 43 45 46 49 50 48 44 39 34 30 34 40 40 39 37 38 40 40 41 43
39 40 40 40 38 36 37 37 35 34 34 34 33 33 34 35 37 38 38 38 39 40 42 43 41 40 44 47 46 42 41 44 45 46 48 48 48 48 47 47 47 46 46 46 45 45 44 43 42 42 44 44 41 40 39 38 37 37 37 37 36 36 37 39 41 43 45 47 49 51 51 45 38 31 25 29 37 39 37 36 38 39 39 41 43
40 40 39 39 38 36 36 37 37 34 32 33 34 34 35 35 37 38 38 39 39 39 42 42 40 41 46 45 40 39 43 46 47 47 48 48 47 46 46 46 46 47 47 47 46 45 44 43 42 42 43 43 41 40 39 37 36 35 35 34 34 34 36 38 40 42 45 47 50 52 52 47 38 29 23 25 33 38 37 35 37 39 39 40 43
42 43 41 39 37 34 33 36 36 33 32 34 36 36 35 35 36 38 39 38 37 38 42 42 39 41 42 39 40 47 51 50 49 49 49 48 46 45 45 45 46 47 48 48 47 45 44 43 42 42 43 42 40 38 37 36 35 34 33 33 33 34 36 37 40 43 45 48 49 52 52 46 37 31 26 24 29 36 38 35 35 39 40 40 42
41 41 39 35 33 32 32 33 34 34 35 37 37 36 36 35 36 38 38 37 36 39 42 42 41 43 43 43 47 51 51 50 51 51 50 48 47 46 45 45 45 46 47 47 47 45 45 43 42 42 43 41 38 37 36 35 34 33 32 32 33 35 36 37 40 43 45 46 48 51 50 44 37 34 30 25 27 33 38 37 35 38 40 39 41
39 37 35 32 31 31 32 33 34 36 38 38 36 36 35 34 36 37 37 36 37 41 43 43 44 46 46 48 50 49 49 53 54 52 51 50 48 47 46 45 45 45 45 46 46 45 45 44 43 43 43 40 37 36 34 33 33 32 31 31 33 35 36 37 39 41 43 45 47 48 46 41 37 36 33 28 27 31 36 37 35 36 38 39 42
36 34 33 34 34 32 34 36 37 39 39 37 35 34 34 35 36 37 36 37 40 43 44 44 46 48 48 49 50 51 53 55 55 53 52 50 49 48 47 46 45 45 45 45 45 45 45 44 43 43 41 37 35 34 33 32 32 31 30 31 33 35 36 37 39 40 41 42 42 42 42 38 33 33 32 29 27 30 33 33 31 32 35 39 42
30 31 34 38 39 37 37 38 38 39 39 37 34 34 34 36 37 37 38 39 41 43 44 45 47 49 49 50 50 52 54 55 54 53 51 50 49 49 47 46 45 44 44 44 44 44 44 44 43 41 38 34 33 33 32 32 31 30 31 31 33 35 36 37 38 39 39 39 37 37 38 35 30 27 27 26 26 28 28 27 27 30 33 37 42
29 32 35 39 41 40 39 38 38 40 40 36 34 34 36 37 37 37 39 41 42 43 44 45 47 49 50 50 51 52 53 54 53 52 50 50 49 48 47 46 44 43 43 42 42 43 43 42 41 38 34 33 33 32 31 30 30 30 31 32 33 35 35 35 36 37 36 34 33 33 34 33 27 23 23 23 23 23 23 23 26 28 31 34 39
32 34 37 41 44 43 40 38 40 43 40 35 34 36 37 37 35 36 40 42 44 44 45 45 47 50 51 50 51 53 53 53 52 50 49 48 47 46 45 45 43 42 42 41 42 42 41 40 39 35 32 32 32 30 30 29 28 29 30 32 33 34 34 33 33 34 33 31 30 30 30 29 24 20 19 19 20 20 19 21 25 27 30 33 38
33 35 39 40 40 39 39 39 41 42 38 35 36 37 37 36 36 39 42 44 44 45 46 48 49 50 51 51 52 53 53 52 51 49 47 46 44 44 43 42 41 40 40 40 41 40 39 38 36 32 31 30 29 28 27 26 26 27 29 31 33 32 31 31 31 31 31 29 28 27 27 26 22 17 17 17 17 19 19 20 24 27 29 32 39
34 36 36 35 35 37 41 41 41 39 36 35 37 36 36 37 40 42 45 46 46 47 49 50 50 50 50 51 52 53 52 51 49 47 45 43 42 41 41 39 39 38 38 39 39 38 36 35 33 30 29 28 27 26 25 24 25 27 29 31 32 30 28 28 29 30 31 30 28 26 24 23 19 17 17 13 11 15 19 21 23 26 27 31 38
35 34 33 37 39 42 41 39 38 37 35 34 34 35 36 39 41 44 47 48 48 49 50 50 50 50 51 51 52 52 51 49 47 45 43 41 41 40 39 38 38 37 37 38 37 35 34 32 30 28 27 26 26 25 24 24 25 27 29 30 29 26 26 26 27 29 31 30 29 26 22 19 17 18 20 13 7 10 17 21 23 24 25 30 37
34 32 33 38 40 38 37 39 39 37 34 33 33 35 36 37 41 46 48 48 48 49 50 49 49 50 51 51 51 51 49 47 45 43 41 40 40 40 39 38 38 37 37 37 35 32 32 30 28 27 26 26 26 25 25 25 25 26 28 28 26 24 24 24 25 28 30 31 30 26 21 18 15 15 18 16 11 9 13 19 24 25 26 30 36
37 36 36 38 39 39 40 42 41 36 33 33 35 36 36 39 44 47 47 47 48 48 48 48 49 49 50 51 50 49 47 46 44 42 41 40 40 40 39 38 37 36 36 36 33 31 30 29 27 26 25 25 26 25 25 24 25 26 26 26 24 22 22 23 24 26 27 29 31 28 22 18 16 14 15 16 15 12 11 17 23 26 28 32 35
41 42 43 43 44 46 45 41 36 33 33 34 36 38 40 42 45 46 46 47 47 47 47 48 48 49 49 50 49 47 46 45 43 41 40 39 39 39 38 37 36 36 36 35 32 29 29 28 26 25 25 25 25 25 24 24 24 25 25 24 23 21 21 22 23 24 26 28 31 31 26 19 14 12 13 14 18 17 15 18 23 27 29 31 33
42 44 47 47 46 45 41 34 31 31 33 36 39 40 42 43 45 45 46 46 46 46 47 48 48 48 49 47 46 45 45 43 40 38 38 37 37 37 36 36 35 35 35 34 31 28 28 28 27 26 25 24 25 24 23 23 23 23 23 22 21 20 21 22 22 23 25 27 29 31 29 23 14 9 10 12 17 19 18 19 24 27 28 30 31
45 46 46 43 38 34 30 28 30 36 40 42 42 43 43 44 45 45 46 47 47 48 48 48 48 48 46 45 45 45 44 41 38 36 36 35 35 35 35 34 34 34 35 33 29 27 28 28 27 25 24 24 24 24 23 22 22 22 21 21 20 19 20 21 21 22 23 25 26 28 30 28 20 9 7 11 16 20 20 21 25 28 27 27 29
43 40 37 34 33 33 34 36 41 48 49 46 44 45 45 45 46 46 47 48 49 49 49 48 48 46 44 44 45 44 41 37 35 34 34 33 33 34 34 34 33 33 33 31 28 27 28 27 26 25 24 23 23 23 23 22 21 21 21 20 19 19 19 20 20 21 22 24 25 26 28 29 26 17 7 6 12 19 22 22 25 27 27 25 26
40 41 43 45 44 45 47 48 50 51 49 46 46 46 46 47 48 48 49 50 50 50 49 48 47 45 43 43 43 41 38 35 34 33 33 32 32 32 33 33 32 32 32 30 28 27 27 27 26 25 24 23 23 23 22 22 21 21 21 20 19 18 18 19 19 20 20 22 24 25 26 27 28 24 16 5 6 13 19 22 24 25 25 25 26
45 48 52 54 53 53 52 52 50 49 48 47 47 47 48 49 49 50 50 51 50 50 49 48 46 44 42 42 40 38 35 34 34 33 33 32 32 31 31 31 31 31 30 29 27 26 26 25 25 24 24 24 23 22 23 22 22 21 21 21 20 19 18 18 18 19 19 20 21 22 23 24 26 27 23 14 4 6 14 19 23 26 27 26 26
49 51 53 55 55 54 52 50 49 48 47 48 48 49 50 51 51 51 51 51 50 50 49 47 44 42 41 41 39 37 35 34 34 33 33 32 31 30 31 30 30 29 29 27 26 26 25 25 23 22 23 24 24 24 24 23 22 22 21 21 21 20 18 18 18 18 18 19 19 20 21 22 23 24 25 21 14 2 8 15 19 24 28 29 28
51 53 54 54 54 53 51 50 48 47 47 49 51 52 53 52 52 52 51 51 51 51 49 45 42 41 41 41 39 37 36 35 33 32 32 32 30 30 30 29 29 28 27 26 26 27 27 26 24 22 22 24 25 25 25 24 24 23 22 21 21 20 19 18 18 18 18 18 19 19 20 20 20 21 21 22 20 13 2 6 13 19 25 29 30
52 53 52 51 51 51 50 49 48 47 48 51 53 54 53 53 52 51 51 51 51 50 47 43 41 41 41 40 38 37 36 34 33 32 32 31 30 29 29 29 28 27 27 27 27 27 28 27 26 24 23 23 24 25 25 25 25 24 23 21 21 20 19 18 18 18 18 18 18 18 19 19 19 19 18 19 20 19 14 6 3 12 19 24 28
50 49 48 47 48 49 50 50 50 50 51 54 55 54 53 52 52 51 51 51 50 48 45 43 42 42 41 39 37 36 35 34 32 32 31 30 30 29 29 28 28 27 28 28 28 28 27 27 27 26 24 24 23 23 23 24 25 24 24 22 21 20 20 19 19 19 19 19 18 18 18 19 19 18 18 17 18 19 18 15 9 1 10 18 22
48 49 49 50 51 53 55 55 54 53 53 54 54 53 53 53 53 52 51 50 48 45 44 43 43 42 39 38 37 35 34 32 31 30 30 29 28 28 28 28 28 28 28 28 28 28 26 26 26 26 24 24 24 23 22 22 23 24 24 23 22 21 20 20 20 20 20 20 19 18 18 18 19 18 17 16 16 16 17 17 16 12 4 6 15
53 53 54 54 55 56 57 55 53 51 52 52 53 53 54 54 53 52 50 48 46 44 43 43 42 40 38 37 36 34 32 30 29 28 28 28 27 27 27 28 28 28 27 27 27 27 25 24 24 24 24 23 23 23 22 21 22 23 23 23 23 22 21 20 21 20 20 20 20 19 18 17 17 18 17 15 14 14 14 15 16 16 14 8 2
53 53 53 54 54 54 53 52 51 51 51 53 54 54 54 52 51 50 49 47 45 44 43 42 40 39 37 36 34 32 30 28 28 27 27 27 26 26 26 27 27 27 27 26 26 26 25 24 23 23 23 23 22 22 22 21 21 21 22 23 23 23 22 21 21 21 21 21 21 20 19 17 16 16 17 16 14 13 13 13 13 14 15 14 10
49 50 51 51 50 49 50 51 52 52 52 52 52 52 51 51 50 49 48 47 44 42 41 40 38 37 36 34 32 30 28 27 27 27 27 27 26 26 26 27 27 27 27 26 25 25 24 23 22 22 22 22 22 21 21 21 21 21 21 22 23 23 23 22 22 22 22 22 21 20 19 18 16 15 15 15 15 14 12 11 11 12 13 14 14
46 45 45 45 46 48 51 52 51 50 50 49 50 49 49 50 49 47 45 43 41 40 38 37 36 35 34 32 30 27 26 26 26 26 26 26 26 26 26 26 26 26 26 25 25 24 24 23 22 22 21 21 21 21 20 20 21 21 21 22 22 23 23 23 23 23 23 23 22 21 19 18 17 16 15 15 15 15 14 12 11 10 11 12 12
43 42 44 47 49 51 53 52 50 48 48 48 49 49 48 48 47 45 42 41 40 38 36 34 33 33 32 31 29 27 26 25 25 25 25 25 26 26 26 26 26 26 26 25 25 25 24 23 23 22 22 21 21 20 20 20 20 20 21 22 22 23 23 24 24 24 24 24 23 22 21 19 18 17 16 15 15 15 15 14 12 10 9 10 10
45 47 50 52 51 51 52 52 51 50 48 48 48 47 46 46 45 44 42 40 38 35 33 31 31 30 29 28 27 27 26 26 25 25 25 25 25 26 26 26 26 26 26 25 25 25 24 24 23 22 22 22 21 20 20 20 20 20 20 21 22 23 23 24 24 24 24 24 24 23 22 21 20 19 18 17 16 16 16 16 15 13 10 9 9
47 48 49 49 49 48 48 48 48 47 46 45 45 45 44 43 41 40 38 36 34 31 30 29 28 27 27 27 26 26 26 25 25 25 25 26 26 26 25 25 25 25 25 25 25 25 25 25 24 23 23 23 22 22 22 22 22 22 22 21 22 22 23 23 24 23 23 24 24 24 23 23 22 21 20 19 18 17 17 17 17 16 14 11 10
45 45 45 44 43 42 41 40 40 40 40 39 39 39 38 36 35 34 33 31 30 29 28 27 26 26 26 26 26 25 25 25 25 25 26 26 26 26 25 25 25 25 25 25 25 25 25 25 25 25 24 24 24 24 24 24 24 24 24 23 23 23 23 24 24 24 23 23 23 23 24 24 23 23 22 21 20 20 19 19 18 17 16 15 13
41 40 39 37 36 35 34 33 33 33 32 32 32 32 32 32 32 31 31 30 29 28 28 27 27 26 26 26 26 25 25 25 25 25 26 27 26 26 25 25 26 26 26 26 26 26 26 26 26 26 26 26 26 26 26 26 26 26 25 25 25 24 24 24 25 25 25 24 23 24 24 24 24 24 23 23 22 21 21 20 20 19 18 18 16
36 35 34 33 32 31 30 30 30 30 30 30 30 31 31 32 32 32 32 31 30 29 29 28 27 27 26 26 25 25 25 25 25 26 26 26 26 25 25 25 26 26 26 26 26 26 27 27 27 27 28 28 28 28 28 27 27 27 27 26 26 26 26 26 25 26 26 25 25 25 24 24 24 24 24 23 23 23 23 22 21 21 20 20 19
32 31 31 30 30 30 31 31 32 32 32 31 31 31 31 32 32 32 32 31 30 30 29 28 28 28 27 26 25 25 25 25 25 25 25 25 25 25 25 25 25 26 26 26 26 27 27 28 28 28 28 29 29 29 29 28 28 28 28 27 27 27 27 26 26 26 26 25 25 25 24 24 24 24 24 24 24 24 24 24 23 22 22 22 21
29 28 28 29 29 30 30 30 30 31 31 31 31 31 31 31 31 32 32 31 30 30 30 29 29 28 27 26 25 25 25 24 24 24 25 24 24 25 25 26 26 26 26 26 26 27 28 28 28 28 27 27 28 28 28 28 28 27 27 27 27 26 25 25 24 24 24 24 24 23 23 23 23 23 23 24 24 24 24 24 24 23 23 23 22
27 27 27 28 29 29 29 29 29 29 29 29 30 30 31 31 31 30 30 30 29 29 29 29 29 28 27 26 25 24 24 23 23 23 24 24 24 24 25 25 26 26 26 26 26 26 26 27 26 25 24 24 24 25 25 25 25 25 24 23 23 22 21 21 21 21 21 21 21 21 21 22 22 22 22 23 23 24 24 25 25 24 24 24 24
Wind_Direction
288 290 291 292 291 287 283 282 283 288 291 291 288 286 287 290 294 299 305 310 312 310 308 306 304 302 300 301 303 306 308 310 311 311 311 312 314 315 317 318 319 319 317 316 315 315 314 314 313 313 312 309 307 307 307 305 303 301 300 300 300 300 298 297 295 290 286 284 282 280 278 274 270 264 257 252 252 253 252 251 248 245 243 243 242
287 291 293 293 291 288 286 283 283 289 294 294 291 288 290 295 299 301 304 309 310 308 307 305 303 300 298 299 302 305 307 309 310 311 312 313 314 315 316 318 319 318 316 315 315 314 314 314 313 313 313 309 307 308 306 303 301 300 299 299 299 298 297 296 295 292 286 282 280 279 279 278 275 271 264 254 250 250 251 251 249 245 243 242 241
288 292 294 292 290 288 286 287 288 291 295 297 296 293 294 299 301 300 301 305 308 307 305 304 302 299 297 298 301 304 307 310 311 312 313 314 315 316 317 318 318 317 315 315 315 315 315 314 314 314 313 310 308 307 305 302 301 300 298 298 297 296 295 295 294 292 288 283 280 279 278 279 278 276 271 262 253 248 248 249 249 246 242 241 240
290 292 292 291 288 284 283 286 289 292 295 298 297 296 297 301 301 300 300 302 304 305 304 303 301 299 298 299 302 305 309 311 312 314 315 316 317 317 317 318 317 316 315 315 316 316 316 315 315 315 314 311 308 306 304 303 301 299 297 296 296 296 295 295 294 292 289 286 282 280 279 278 278 277 274 268 259 252 248 247 248 246 242 240 239
291 291 291 289 287 283 282 285 287 290 295 297 296 295 296 300 302 301 299 300 302 304 303 302 301 301 301 302 304 307 310 313 314 316 317 317 317 317 318 318 317 317 316 316 316 316 316 316 315 315 315 311 308 306 305 303 301 299 298 296 294 295 295 295 294 292 291 290 286 283 281 279 278 278 276 271 263 256 251 248 246 246 243 239 237
292 290 288 286 285 283 281 281 283 289 295 296 296 295 295 299 302 300 299 299 301 302 301 302 303 303 303 305 307 310 312 315 317 317 317 317 317 318 319 318 318 318 318 317 316 316 316 315 314 315 313 311 309 309 307 305 302 300 298 294 290 291 292 292 290 291 292 292 289 286 283 281 281 281 279 274 267 259 254 250 246 244 242 239 236
289 287 285 283 283 282 280 278 282 291 297 296 295 293 292 298 302 300 299 300 301 302 302 304 305 304 305 307 310 312 313 316 317 317 317 317 318 320 319 319 319 319 318 317 316 315 314 313 314 314 313 312 312 310 308 305 302 299 297 293 290 289 289 288 288 289 290 290 289 287 284 282 283 282 278 274 269 262 255 251 247 244 241 238 235
287 284 281 281 281 282 279 276 280 292 297 295 293 289 289 298 303 301 300 301 302 304 305 306 307 306 307 308 310 312 314 316 317 318 318 318 320 321 321 320 319 318 317 316 315 315 313 313 314 314 314 314 313 311 308 305 302 299 296 294 291 290 290 290 290 290 291 290 290 288 285 284 284 281 277 273 269 263 257 251 245 243 241 237 234
285 282 280 280 282 284 280 275 278 286 291 293 292 287 288 298 303 302 303 304 305 305 306 307 308 307 307 308 310 312 315 316 316 317 319 319 320 321 321 320 319 317 316 315 314 314 314 314 314 314 315 316 315 312 309 306 302 298 295 294 293 293 295 296 295 294 293 292 291 290 287 286 285 281 276 273 268 262 257 252 244 241 240 237 233
283 281 281 281 281 282 280 276 279 284 288 292 289 285 287 295 302 304 305 305 306 306 307 307 307 307 308 309 311 313 315 316 316 317 318 318 319 321 321 320 318 316 314 314 313 313 314 314 313 313 315 317 316 312 308 305 302 298 294 294 294 296 298 299 298 296 294 294 293 292 290 288 287 283 277 272 267 261 256 251 243 238 238 236 232
283 281 282 280 277 278 279 279 281 285 290 290 287 283 285 292 300 305 305 305 306 307 306 306 306 308 310 311 313 314 316 317 317 317 317 318 319 320 320 318 316 314 313 312 311 310 312 312 309 309 314 316 314 309 306 304 302 298 294 294 295 297 300 300 299 297 297 297 296 296 294 292 290 288 280 270 264 259 254 249 242 237 235 234 231
283 282 281 275 271 275 280 280 282 287 290 289 287 284 283 289 298 303 303 304 306 306 305 306 307 309 312 313 315 316 316 317 317 317 317 319 319 319 318 317 314 313 313 311 309 307 309 310 307 305 310 314 311 306 304 304 301 298 296 297 299 301 301 301 300 299 299 299 298 299 299 295 292 291 281 266 260 256 251 245 239 235 233 231 229
283 282 280 273 271 276 280 278 279 285 287 286 287 286 285 289 297 301 302 303 304 305 305 306 308 309 312 314 314 314 315 316 317 318 319 320 319 318 317 315 314 313 312 310 309 307 307 308 307 305 308 312 310 305 304 304 302 299 298 299 301 302 301 301 300 299 301 301 301 301 301 297 294 292 278 261 256 253 248 243 237 233 231 228 226
286 282 280 278 278 280 277 272 273 278 282 285 289 291 289 291 296 300 301 302 302 303 304 305 307 310 314 315 312 312 316 318 319 318 318 319 318 316 315 313 313 312 311 310 310 308 308 308 307 307 308 310 309 305 303 304 303 300 298 299 300 300 299 299 299 301 303 305 304 303 302 301 298 293 278 260 253 251 247 241 236 232 229 226 223
286 281 282 284 284 278 272 270 270 271 277 285 291 292 291 292 296 299 300 299 299 302 304 305 307 312 316 317 314 314 320 321 319 317 317 317 316 315 313 312 312 311 311 310 310 310 310 310 308 308 307 307 307 304 303 305 306 302 298 297 297 297 298 299 300 303 305 305 305 303 303 304 302 295 283 263 252 250 248 243 237 234 229 225 222
287 281 282 284 281 273 271 274 271 270 279 289 292 291 290 292 296 298 298 296 298 304 306 306 307 311 315 315 311 312 316 318 318 317 317 317 316 315 313 312 312 311 310 310 310 311 311 311 310 308 306 304 304 302 302 304 306 304 299 298 298 298 299 301 302 304 306 306 306 304 304 306 304 297 289 270 251 248 249 246 240 235 230 225 221
289 282 276 276 276 274 276 277 272 272 284 292 291 288 288 291 295 298 296 293 297 306 308 305 306 308 310 310 308 308 311 316 317 317 317 318 316 314 313 312 311 310 309 309 310 310 311 311 310 308 305 303 302 301 301 302 303 303 300 299 300 300 302 303 304 305 307 307 307 306 306 307 304 297 293 279 256 247 248 248 243 237 231 224 219
288 279 270 272 280 281 280 279 275 278 287 291 287 284 285 290 296 299 296 291 294 303 305 304 304 305 308 311 311 310 312 316 317 316 317 317 315 313 313 312 311 310 309 309 309 310 311 311 310 308 305 302 301 301 301 301 302 302 300 300 301 301 303 304 305 306 308 309 309 307 306 307 304 297 293 283 262 248 246 246 243 237 230 223 217
288 278 271 277 285 284 281 281 279 281 285 286 283 281 284 290 296 299 297 292 293 300 303 303 304 305 309 313 314 313 313 313 314 315 316 316 314 313 312 311 311 310 309 309 309 309 310 311 309 307 305 302 300 301 301 302 303 302 302 302 302 303 305 306 306 307 309 309 308 306 303 305 303 294 289 282 265 249 244 244 238 231 227 221 216
290 281 278 282 284 282 281 281 278 278 279 280 279 280 285 289 292 295 296 294 295 299 301 301 304 307 311 314 313 311 311 311 313 314 315 314 313 312 312 311 311 310 309 309 309 309 310 310 308 306 303 300 299 301 303 304 304 303 303 304 304 306 308 309 309 311 311 311 312 308 303 305 303 291 282 278 264 248 241 237 230 225 224 221 216
289 285 284 283 279 277 279 280 276 274 275 277 278 280 285 287 288 293 297 297 296 297 299 301 305 309 313 313 311 310 310 311 313 314 314 313 312 312 311 311 311 311 310 309 309 309 310 309 307 304 300 298 299 302 305 305 304 303 304 305 307 309 310 311 312 314 315 316 316 311 304 305 303 290 278 273 262 249 239 230 224 223 224 222 216
289 288 286 280 272 270 276 279 274 272 274 277 279 280 282 284 287 294 299 299 297 297 300 303 306 309 312 311 310 310 311 312 313 313 312 312 311 311 311 311 311 311 309 308 308 309 310 309 306 301 297 296 299 303 306 305 304 303 304 307 309 311 311 312 315 318 319 319 320 317 311 307 303 291 281 276 265 252 240 230 227 227 226 222 215
288 288 285 274 262 264 276 279 273 271 274 277 276 277 280 284 289 295 299 300 300 300 303 305 307 309 311 310 311 312 312 313 313 312 310 309 309 309 309 310 310 310 309 308 308 310 311 309 305 298 294 295 299 303 306 305 303 305 307 309 311 311 311 314 318 323 326 324 325 328 322 313 304 289 281 279 270 258 246 235 232 231 226 220 212
287 287 277 261 257 271 282 279 272 271 273 272 272 276 283 288 291 295 300 304 304 303 305 307 308 310 311 311 311 312 313 313 311 309 308 307 307 308 309 310 311 310 308 308 309 312 312 308 302 296 293 296 299 303 306 306 305 307 309 310 311 310 310 315 321 329 334 333 333 334 329 317 304 283 273 274 265 255 247 237 234 230 222 215 208
289 285 270 259 266 279 279 271 267 268 267 267 273 281 287 290 293 298 303 305 305 305 307 308 310 311 311 310 311 311 312 311 309 306 305 304 306 309 311 312 312 310 309 309 311 313 311 306 299 294 294 298 301 304 308 307 306 307 308 309 309 307 309 316 324 332 339 341 340 339 333 323 308 289 281 276 252 245 243 232 225 219 211 206 202
290 286 276 270 273 273 267 264 267 266 264 270 280 287 289 290 295 300 303 305 305 307 308 309 311 311 310 309 310 310 310 309 306 303 302 304 308 311 312 313 313 310 309 310 312 312 309 305 299 295 296 300 302 305 308 306 304 305 306 307 308 306 309 318 326 333 340 345 346 345 338 327 315 297 285 272 246 240 242 225 212 205 198 195 196
290 288 287 282 273 265 265 270 270 265 266 275 282 286 288 292 297 301 303 305 306 307 308 309 310 309 309 309 310 309 307 305 303 301 303 306 309 311 311 312 311 309 308 309 311 311 307 303 299 297 298 301 303 304 305 304 302 303 305 306 305 305 310 319 327 333 339 346 350 352 348 334 319 301 282 261 237 229 235 221 207 199 195 193 193
283 285 289 285 272 265 267 272 269 264 268 276 282 288 294 298 302 303 304 305 306 307 308 309 308 308 308 309 309 307 305 303 302 302 304 307 309 309 310 310 310 308 307 308 310 309 306 302 299 298 299 301 302 303 303 302 301 301 303 303 303 304 310 319 327 333 338 345 352 356 357 350 327 300 281 257 234 228 230 217 204 199 197 195 194
279 281 284 280 272 267 266 265 262 265 276 285 291 297 302 303 304 304 305 306 307 307 308 308 308 308 308 308 308 307 305 303 302 303 305 307 308 308 308 309 308 307 306 308 310 308 305 302 298 297 300 301 301 302 302 300 299 299 300 300 300 303 311 319 326 333 339 344 349 355 359 360 346 308 280 256 233 226 223 212 203 201 199 197 197
272 272 276 274 268 264 258 255 265 282 295 300 302 305 306 305 305 305 306 307 307 308 308 308 307 307 307 307 308 308 306 303 302 304 306 307 307 307 308 308 308 307 307 308 309 307 304 301 296 294 298 300 301 301 301 300 298 298 297 296 298 302 309 317 324 331 337 341 346 352 358 1 2 348 289 256 234 224 221 212 206 207 209 207 205
263 263 275 280 275 270 264 265 279 295 303 306 306 306 306 306 307 307 307 307 307 308 308 307 307 307 308 308 309 308 305 303 303 304 306 306 306 307 307 308 308 307 307 308 307 305 304 302 295 290 293 298 300 301 301 300 299 299 297 294 295 300 306 313 321 328 334 339 344 349 354 359 4 9 355 260 231 223 220 216 212 214 217 217 214
269 272 282 287 285 283 281 282 289 297 302 304 305 306 306 306 306 305 305 305 306 306 306 306 307 308 308 307 307 306 304 303 304 304 304 304 304 306 307 308 308 307 306 306 305 305 306 304 296 287 286 293 298 299 301 301 299 299 298 295 294 297 302 308 316 324 330 335 340 346 351 356 1 8 15 8 230 221 219 218 220 222 221 220 219
282 283 285 288 290 290 288 288 292 296 299 302 304 304 304 303 302 302 303 304 304 305 305 306 306 306 306 305 304 303 303 303 302 302 302 301 302 304 306 307 307 306 305 304 303 304 306 306 299 287 280 284 291 295 299 301 300 298 297 294 293 295 299 304 310 317 324 329 335 341 347 352 358 5 12 18 6 228 219 219 223 226 225 221 219
288 288 289 291 292 291 289 290 293 296 298 300 301 301 300 299 299 300 301 302 303 304 304 304 304 304 304 304 302 301 301 300 300 300 300 300 301 304 305 305 305 304 303 301 301 301 303 306 304 293 281 278 283 289 294 297 299 299 296 293 292 293 295 299 305 309 315 322 328 335 342 348 355 1 7 12 17 359 218 217 220 223 222 220 218
289 289 290 291 291 289 288 290 294 296 298 299 299 298 298 297 298 300 301 302 303 303 302 302 301 302 303 302 300 298 298 298 298 298 298 299 301 303 303 303 303 302 300 298 298 299 301 303 304 300 290 283 282 284 287 290 294 297 296 293 292 291 292 294 298 302 307 314 322 328 335 342 350 357 1 6 12 16 6 213 214 217 220 221 222
289 289 290 290 289 287 287 292 295 295 296 297 296 295 296 297 298 299 300 301 302 301 300 300 300 300 301 300 298 296 296 296 296 296 297 298 299 300 301 300 300 299 297 296 296 297 299 300 300 299 297 293 289 286 285 285 287 290 292 292 290 290 291 292 294 298 302 308 315 322 328 333 340 349 355 359 4 10 16 22 196 207 214 219 222
287 287 286 285 284 284 288 292 294 294 294 293 293 293 294 295 297 298 299 300 300 300 299 299 299 299 298 297 295 295 295 294 295 295 296 297 298 299 299 298 296 295 295 295 295 295 297 298 298 298 297 296 295 293 289 285 284 285 288 289 288 287 289 291 292 296 300 304 310 316 321 326 330 338 346 353 356 2 9 16 25 110 207 211 211
283 284 284 283 283 285 288 292 293 292 292 292 291 292 294 295 296 296 296 298 299 299 299 299 298 297 296 294 294 294 294 293 294 295 295 296 298 299 298 297 295 294 294 294 295 295 295 294 294 296 297 296 296 297 294 288 284 282 284 286 287 286 286 287 289 292 295 299 304 309 313 318 322 326 334 343 348 354 1 8 15 20 18 211 205
282 283 283 283 283 285 288 290 291 291 291 291 291 292 294 294 295 295 295 295 296 297 299 299 297 295 294 293 293 294 294 293 294 295 295 296 297 297 298 296 295 295 295 295 295 295 294 291 290 292 294 294 293 294 294 291 286 282 282 283 285 286 285 285 286 289 291 294 298 302 305 309 313 317 323 330 337 345 352 358 4 10 15 15 238
283 283 283 283 284 286 287 289 290 291 290 290 291 292 293 293 292 292 292 292 292 295 297 298 296 294 293 293 292 292 293 293 294 294 294 295 295 296 297 296 296 296 296 297 297 295 294 293 291 291 292 292 291 291 291 291 288 285 282 282 283 285 286 286 286 287 289 290 292 295 299 302 305 308 313 318 324 332 340 348 355 0 6 11 13
285 285 284 284 284 286 288 290 292 292 291 290 290 290 290 289 288 288 289 288 288 291 295 295 294 293 291 290 290 291 292 293 294 294 294 294 295 297 297 296 296 296 296 296 295 294 294 294 293 291 291 291 291 290 289 289 288 287 285 283 284 285 287 288 289 288 289 289 290 292 294 297 299 301 304 307 312 318 325 334 344 353 357 1 4
287 286 284 284 287 290 292 292 292 291 290 289 288 287 286 285 285 285 286 286 287 290 292 291 290 289 288 288 289 289 290 290 290 290 291 293 295 296 296 294 293 293 293 292 292 291 291 291 290 290 290 290 291 291 290 289 288 287 286 285 286 286 287 289 290 290 289 289 290 290 291 292 294 295 297 299 302 306 311 317 326 337 347 355 357
284 285 286 289 292 293 292 291 290 291 290 288 286 284 283 283 284 284 283 285 288 289 288 286 285 285 286 287 289 289 289 289 289 290 290 291 292 292 291 289 289 289 288 287 287 288 287 286 286 287 288 288 289 290 290 290 288 287 285 285 284 285 286 287 288 288 288 288 288 288 289 289 289 290 292 293 294 296 299 303 308 315 326 338 348
287 290 291 292 292 290 289 288 289 290 289 287 285 284 284 284 284 284 285 286 287 287 285 283 284 285 287 288 289 289 290 290 291 292 292 291 290 289 287 287 287 286 285 284 284 284 284 284 283 283 284 285 286 286 287 288 287 286 285 284 283 282 283 284 284 285 285 285 286 286 286 286 286 287 287 288 289 290 291 292 294 299 305 312 323
291 291 291 290 290 289 288 288 288 287 286 285 283 283 283 283 284 286 287 287 286 285 283 283 284 285 286 287 287 287 289 290 291 291 291 290 289 288 287 285 284 283 281 280 280 281 280 280 281 281 281 281 283 283 284 284 284 284 284 283 283 282 281 281 282 282 282 282 282 283 283 283 283 283 284 285 285 285 286 286 286 287 290 294 297
290 290 291 292 292 291 289 288 286 285 283 282 280 280 281 282 284 286 287 286 286 285 284 283 284 283 284 284 284 285 287 288 288 288 287 287 286 286 285 284 282 280 279 279 278 278 278 278 278 279 279 280 280 281 282 282 282 282 283 282 282 282 281 281 281 280 280 279 279 280 280 281 281 281 281 282 283 283 283 283 283 282 282 283 285
290 293 294 295 294 292 291 290 288 286 284 283 282 282 284 286 287 287 286 286 285 284 283 283 282 281 281 282 284 285 286 286 286 285 284 283 284 284 283 282 281 280 279 279 278 278 279 279 279 279 280 280 280 280 281 281 281 281 282 282 281 281 281 281 280 280 280 279 279 278 278 278 279 280 280 280 281 282 281 280 280 280 279 278 278
293 294 294 294 293 291 290 289 289 289 288 288 287 287 288 288 288 287 286 286 285 284 283 282 282 281 281 282 283 284 284 284 283 282 282 282 282 282 281 280 280 280 279 279 279 279 279 279 280 280 280 280 280 280 280 281 281 281 281 281 280 280 280 280 279 279 279 279 279 278 277 276 277 278 279 279 279 279 279 278 276 276 276 276 275
292 292 292 292 291 289 289 289 290 291 291 290 290 289 288 287 286 286 286 285 285 284 284 283 282 281 281 282 283 282 282 281 281 281 281 281 281 281 281 281 281 281 281 281 281 280 280 279 279 279 279 280 280 280 280 280 280 280 280 279 279 279 279 278 278 277 277 277 276 276 275 274 274 275 276 277 277 277 277 276 274 273 273 272 272
291 291 292 291 291 290 290 290 290 291 291 291 291 289 288 287 286 286 285 285 285 284 283 282 280 280 280 281 280 279 279 279 278 278 278 279 280 282 284 284 284 284 284 284 283 282 281 280 279 278 279 279 279 279 279 280 279 279 279 279 279 278 277 276 275 274 273 273 273 272 271 271 271 271 271 272 273 274 274 273 272 271 271 270 269
290 291 291 291 292 292 292 292 292 292 292 292 291 290 288 287 286 285 285 285 284 282 281 279 279 279 279 278 277 276 276 277 277 277 279 281 283 284 285 286 285 285 284 284 283 282 281 281 280 280 279 279 280 279 279 279 279 279 279 278 277 276 274 271 270 269 268 267 268 268 268 268 267 267 267 267 268 269 270 270 270 269 269 268 268